Temperature
11 11 11 11 11 11 11 11 11 11 12 12 12 12 12 12 12 12 13 13 13 13 13 14 14 14 14 14 15 15 15 15 15 15 15 15 15 15 15 15 15 15 15
11 11 11 11 11 11 11 11 11 11 11 11 11 12 12 12 12 12 12 12 13 13 13 13 13 14 14 14 14 14 14 14 14 14 14 14 14 15 15 15 15 15 15
11 11 11 11 11 11 11 11 11 11 11 11 11 11 11 12 12 12 12 12 12 13 13 13 13 13 14 14 14 14 14 14 14 14 14 14 14 14 14 14 14 14 14
11 11 11 11 11 11 11 11 11 11 11 11 11 11 11 11 12 12 12 12 13 13 13 13 13 13 13 13 14 14 14 14 14 14 14 14 14 14 14 14 14 13 13
11 11 11 11 11 11 11 11 11 11 11 11 11 11 11 11 12 12 12 12 12 12 13 13 13 13 13 13 13 14 14 14 14 14 14 13 13 13 13 13 13 13 13
11 11 11 11 11 11 11 11 11 11 11 11 11 11 11 11 11 12 12 12 12 12 12 12 12 13 13 13 13 13 13 13 14 14 14 13 13 13 13 13 13 13 12
12 11 11 11 11 11 11 11 11 11 11 11 11 11 11 11 11 12 12 12 12 12 12 12 12 12 13 13 13 13 13 13 13 13 14 13 13 13 13 13 13 12 12
12 11 11 11 11 11 11 11 11 11 11 11 11 11 11 11 11 12 12 12 12 12 12 12 12 12 12 13 13 13 13 13 13 13 13 13 13 13 13 13 13 12 12
12 12 11 11 11 11 11 11 11 11 11 11 11 11 11 11 11 11 12 12 12 12 12 12 12 12 12 13 12 13 13 13 13 13 13 13 13 13 13 12 12 12 12
12 12 12 11 11 11 11 11 11 11 11 11 11 11 11 11 11 11 11 11 11 11 12 12 12 12 12 12 12 12 12 12 12 12 12 13 13 13 12 12 12 12 11
13 12 12 12 12 11 11 11 11 11 11 11 11 11 11 11 11 11 11 11 11 11 12 12 12 12 12 12 12 12 12 12 12 12 12 12 12 12 12 12 12 12 12
13 13 12 12 12 12 12 11 11 11 11 11 11 11 11 11 11 11 11 11 11 11 11 12 12 12 12 12 12 12 12 12 12 12 12 12 12 12 12 12 12 12 11
13 13 13 12 12 12 12 11 11 11 11 11 11 11 11 11 11 11 11 11 11 11 11 12 12 12 12 12 12 12 12 12 12 12 12 12 11 12 12 11 11 11 11
13 13 13 13 12 12 12 12 12 11 11 11 11 11 11 11 11 11 11 11 11 11 11 11 12 12 12 12 12 12 11 11 11 12 11 11 11 11 11 11 11 11 10
14 13 13 13 13 13 12 12 12 12 12 11 11 11 11 11 11 11 11 11 11 11 11 11 11 11 11 11 11 11 11 11 11 11 11 11 11 11 11 11 10 10 10
14 14 14 13 13 13 13 12 13 12 12 12 12 12 11 12 12 12 11 11 11 11 11 11 11 11 11 11 11 11 11 11 11 11 11 11 10 10 10 10 10 10 10
15 14 14 14 13 13 13 13 12 12 13 12 12 12 12 12 12 12 12 11 11 11 11 11 11 11 11 11 11 11 11 11 11 10 10 10 10 10 10 10 10 10 10
15 14 14 14 14 14 13 13 13 12 12 12 12 12 12 12 12 12 12 11 11 11 11 11 11 11 11 11 11 11 11 10 10 10 10 10 10 10 10 10 10 10 10
14 14 14 14 14 14 14 13 13 13 13 13 12 12 12 12 12 12 12 11 11 11 11 11 11 11 11 11 11 11 10 10 10 10 10 10 10 10 10 10 10 10 9
14 14 14 14 14 14 14 14 13 13 13 13 13 13 12 12 12 12 12 12 11 11 11 11 11 11 11 11 11 11 11 10 10 10 10 10 10 10 10 9 9 9 9
14 14 14 14 14 14 13 13 13 13 13 13 13 13 13 12 12 12 12 12 12 12 11 11 11 11 11 11 11 11 11 11 10 10 10 10 10 10 9 9 9 9 9
12 13 13 13 13 13 13 13 13 13 13 13 13 13 13 13 12 12 12 12 12 12 12 12 12 12 11 11 11 11 11 11 11 10 10 10 10 10 9 9 9 9 9
11 11 11 12 12 12 12 12 12 13 13 13 13 13 13 13 13 13 13 12 12 12 12 12 12 12 12 12 12 11 11 11 11 11 10 10 10 10 9 9 9 9 9
10 10 10 10 11 11 11 11 11 12 12 12 12 12 12 13 13 13 13 13 12 12 12 12 12 12 12 12 12 12 12 11 11 11 11 10 10 10 9 9 9 9 8
8 8 9 9 9 9 10 10 10 10 11 11 11 12 12 12 12 12 13 13 13 12 12 12 12 12 12 12 12 12 12 12 11 11 11 10 10 10 9 9 9 9 8
7 7 7 7 7 8 8 8 9 9 9 10 10 11 11 11 11 12 12 12 12 12 12 12 12 12 12 12 12 12 12 12 11 11 11 10 10 10 9 9 9 9 8
Wind_Speed
7 8 8 9 9 9 8 9 9 8 8 7 7 6 5 4 3 3 4 5 5 6 6 7 8 8 7 7 7 7 8 7 7 4 3 4 6 7 7 8 9 9 11
7 7 8 8 8 9 9 10 9 9 8 7 6 6 5 5 4 3 3 3 4 5 6 6 7 6 8 7 6 7 7 7 6 6 4 4 5 6 6 6 6 6 7
6 7 7 8 9 9 10 10 10 9 8 7 6 6 5 5 4 3 3 3 3 4 5 5 6 6 7 6 6 6 6 6 6 6 5 4 4 5 6 6 6 5 6
5 6 7 8 8 9 9 9 9 9 8 8 7 6 6 6 5 4 3 2 2 2 3 4 5 5 6 6 6 7 6 7 7 7 6 6 5 6 6 6 6 5 4
5 5 6 7 7 8 9 9 9 8 8 8 7 7 6 5 5 6 4 2 2 2 3 3 3 3 3 3 4 6 7 7 7 7 7 6 6 7 7 6 6 6 4
4 5 5 6 7 7 8 9 9 8 8 8 8 7 7 6 8 8 6 2 1 1 2 2 2 4 4 4 2 3 4 7 8 8 7 8 9 8 7 8 7 6 4
4 4 5 5 6 7 8 8 8 8 8 8 8 8 8 8 9 9 7 4 2 1 0 0 1 2 4 4 5 5 4 3 5 7 8 9 9 10 10 10 9 7 4
3 4 4 5 5 6 7 7 8 7 7 7 8 8 7 8 10 9 8 4 3 3 2 1 1 0 1 2 4 4 3 2 3 5 6 7 7 9 10 9 8 7 6
3 3 3 4 5 5 6 7 7 7 7 7 7 7 7 7 10 10 8 3 3 3 3 3 2 1 2 0 3 4 4 3 4 4 4 4 6 8 9 8 9 9 5
3 3 3 3 4 5 5 6 5 5 5 5 6 6 7 7 8 9 9 3 3 3 3 3 4 3 2 1 3 4 5 4 5 5 6 7 8 9 9 8 8 8 6
2 3 3 3 3 4 4 4 4 4 5 5 5 5 5 6 7 9 9 4 3 3 3 3 3 5 3 2 1 2 4 4 4 4 5 5 5 6 5 5 5 6 6
4 4 4 4 4 3 4 4 4 4 4 4 4 4 4 4 5 7 8 7 6 3 3 3 3 4 4 3 2 5 4 3 4 5 5 5 5 5 5 5 5 4 3
5 5 5 5 4 4 4 4 4 3 4 4 4 4 3 3 3 3 4 5 6 3 3 5 5 3 3 4 5 4 3 3 4 4 5 4 4 5 6 6 7 7 8
7 7 6 6 5 4 4 4 4 4 3 3 4 3 3 3 3 3 2 1 1 1 1 3 3 3 3 4 4 3 2 2 3 4 5 5 5 5 5 6 6 6 6
8 8 7 6 6 6 5 5 5 4 4 5 4 4 4 3 3 5 4 3 3 2 2 1 1 1 2 2 2 2 2 3 4 4 5 5 5 5 5 5 5 5 5
8 8 7 6 6 6 6 6 8 8 6 7 8 7 4 4 3 3 4 5 4 4 3 2 2 2 2 2 2 3 3 3 4 4 5 5 5 6 5 5 5 5 5
10 9 7 7 7 7 7 7 7 8 12 11 11 11 11 7 6 6 5 5 5 5 4 3 3 3 3 3 3 3 3 4 4 4 5 5 5 6 6 6 5 5 5
10 9 9 8 8 8 8 8 8 8 7 7 10 13 13 12 11 9 7 6 6 6 6 5 5 4 4 4 4 4 4 4 5 5 5 5 6 6 6 6 6 6 6
8 8 8 8 8 9 9 9 9 9 9 8 7 8 12 11 11 11 9 8 8 7 7 7 6 6 6 6 6 5 6 6 6 6 6 6 6 6 6 6 6 7 6
7 9 9 9 9 9 9 10 10 10 10 10 9 9 7 8 8 9 9 9 9 9 8 8 8 7 7 7 7 7 7 7 7 7 7 7 7 7 8 8 8 8 8
7 7 7 9 9 10 10 10 10 10 10 10 10 10 9 9 10 10 10 10 10 10 10 9 9 9 9 8 8 9 10 9 8 8 8 8 8 8 8 8 8 8 8
8 8 7 7 8 9 10 10 11 11 12 13 11 10 12 11 11 11 11 11 11 11 11 10 10 10 10 10 10 11 11 11 10 10 9 9 9 9 9 9 9 9 9
8 9 8 8 8 9 9 10 11 11 12 12 12 11 10 11 12 12 13 12 11 11 11 11 11 11 11 11 11 11 12 12 11 11 11 10 10 10 10 10 11 11 10
10 9 9 9 8 9 9 10 10 11 12 12 12 12 12 12 12 13 13 12 12 12 12 12 13 15 17 13 12 13 13 13 13 12 14 12 12 11 11 11 11 12 12
10 10 10 10 10 9 10 10 10 11 11 12 12 12 13 13 13 13 13 12 14 13 15 14 12 14 18 20 17 15 15 16 15 13 13 12 13 13 12 13 12 12 12
11 11 11 10 10 10 10 11 11 11 11 11 12 12 12 13 13 13 12 12 12 13 14 14 16 18 18 18 21 20 19 20 21 18 14 12 13 13 14 12 14 13 13
Wind_Direction
342 344 345 350 350 350 352 349 344 341 340 335 330 327 324 314 288 264 257 245 239 234 228 224 222 221 218 213 212 212 213 212 215 196 178 169 179 184 174 181 179 176 176
339 341 346 348 351 355 357 353 350 349 346 343 339 336 334 327 308 278 264 249 233 234 231 226 223 215 214 213 209 209 208 207 205 192 182 177 184 180 169 166 162 165 163
337 338 343 351 354 354 355 356 353 352 350 349 347 346 342 335 327 309 285 255 227 229 230 227 224 217 212 207 205 204 202 201 201 193 185 179 177 173 166 157 149 137 136
335 337 345 350 351 350 353 355 355 354 351 351 354 353 350 347 345 338 315 276 239 232 231 228 221 217 217 212 207 205 203 203 199 192 185 180 174 171 172 164 153 144 138
333 339 345 347 350 352 355 356 358 356 356 359 2 1 3 360 2 348 330 311 259 229 221 219 212 211 223 228 222 209 201 201 198 192 186 182 179 175 177 170 160 146 137
333 341 346 344 352 354 357 359 0 0 1 6 5 4 7 14 13 359 342 333 308 249 222 208 192 192 187 190 200 219 217 207 199 193 192 189 189 182 171 166 162 159 155
333 341 345 348 353 355 358 0 0 3 7 6 7 6 7 18 17 8 1 357 14 12 347 205 191 173 192 186 171 187 199 214 221 211 200 196 192 184 175 173 176 171 152
330 338 345 347 350 353 359 0 359 1 5 3 4 6 9 17 19 12 358 12 33 32 29 32 21 116 156 181 176 177 174 187 212 218 210 202 193 181 179 173 160 136 114
312 325 337 340 343 347 354 357 359 357 360 3 4 3 7 15 19 9 353 25 37 37 39 36 27 53 76 137 185 169 159 143 97 82 80 127 133 147 154 150 150 149 144
289 301 316 326 328 333 339 344 351 352 352 355 3 2 6 14 23 10 355 22 28 34 43 49 53 40 33 303 196 171 157 146 140 131 123 130 137 140 151 166 164 163 153
266 275 284 293 305 315 321 327 332 341 346 352 357 5 12 16 26 21 7 16 21 27 41 44 48 49 45 16 307 144 128 134 137 131 126 129 134 139 147 152 159 168 164
241 252 263 274 288 297 300 309 320 326 329 339 349 2 9 19 25 21 17 14 358 28 33 43 58 55 63 55 81 98 107 136 143 139 135 131 130 129 125 121 122 112 105
234 244 254 258 265 276 286 293 302 310 320 330 338 345 355 5 31 44 21 16 4 21 41 45 44 51 104 107 103 120 163 162 149 143 135 123 117 120 119 115 111 103 93
241 246 249 253 257 260 265 275 285 297 306 316 325 328 334 336 352 358 352 21 86 71 74 101 108 74 99 111 144 158 155 131 142 136 129 128 127 130 136 139 138 136 124
249 249 250 252 258 263 258 257 266 271 282 287 302 307 312 316 1 351 326 334 345 357 322 223 169 150 133 124 125 127 139 143 140 141 144 147 146 144 142 145 155 163 161
256 256 253 250 249 253 259 252 225 238 240 238 252 273 276 266 292 294 301 315 323 310 273 225 206 193 174 165 166 161 160 157 156 158 161 161 160 160 157 159 171 175 168
255 256 252 250 248 247 250 257 261 234 225 234 237 240 247 259 249 253 262 276 276 268 251 240 225 215 207 200 194 192 185 170 164 170 173 171 171 170 170 171 176 177 173
263 260 256 252 250 250 250 251 255 262 258 245 225 224 230 236 238 239 242 254 243 229 239 243 237 226 217 213 207 203 197 186 183 184 183 181 180 181 182 183 184 185 179
270 266 259 257 253 252 251 250 251 252 255 257 253 222 213 224 227 229 225 237 245 241 234 234 235 230 224 218 213 208 205 201 197 197 196 194 194 194 194 195 191 177 191
281 270 266 264 259 254 251 250 249 249 251 252 251 249 221 209 226 221 217 229 238 240 238 234 231 230 224 220 215 212 211 207 205 207 203 201 203 206 204 202 198 192 200
301 289 259 262 263 260 257 254 253 251 251 252 251 244 227 232 241 241 233 229 232 235 234 232 229 224 223 219 216 214 215 213 210 210 207 205 205 207 209 207 204 205 204
317 309 297 281 273 267 264 261 260 258 256 255 256 243 204 230 244 244 241 237 234 234 234 230 227 223 220 217 217 217 217 217 213 210 209 208 207 208 208 208 207 204 204
330 323 316 306 295 284 275 271 266 263 262 260 258 254 236 234 240 242 243 241 237 232 229 226 228 225 220 219 219 219 220 218 215 210 209 207 207 208 208 208 208 208 208
339 334 328 322 316 307 297 289 282 275 270 267 264 259 254 247 245 245 244 243 238 233 228 224 226 227 223 219 218 218 221 220 215 212 211 211 209 210 208 210 211 211 212
349 344 338 333 329 323 316 309 302 294 287 279 273 268 263 257 253 251 248 244 241 236 232 227 226 228 228 223 219 218 212 206 209 211 207 211 214 212 212 212 212 212 212
354 351 347 342 337 332 326 321 316 312 305 298 291 283 276 269 262 257 252 248 244 240 237 233 229 227 226 225 224 219 204 198 200 205 209 210 212 213 212 214 214 214 214
Height
1521 1517 1514 1511 1507 1503 1500 1496 1493 1490 1487 1485 1483 1481 1480 1479 1478 1477 1477 1478 1478 1480 1481 1482 1484 1486 1489 1491 1493 1496 1498 1501 1504 1506 1508 1510 1512 1515 1518 1520 1523 1525 1527
1520 1517 1514 1511 1507 1504 1500 1497 1493 1490 1487 1485 1483 1481 1479 1477 1476 1476 1475 1476 1476 1477 1478 1480 1481 1483 1485 1487 1489 1492 1494 1497 1500 1502 1504 1506 1509 1511 1514 1516 1519 1521 1523
1519 1517 1514 1511 1508 1504 1501 1497 1493 1490 1487 1485 1483 1480 1479 1477 1476 1475 1474 1474 1475 1475 1476 1477 1479 1481 1483 1484 1486 1488 1490 1493 1496 1498 1500 1503 1505 1508 1510 1513 1515 1517 1519
1519 1516 1514 1511 1508 1504 1501 1497 1494 1490 1488 1485 1483 1481 1479 1477 1475 1474 1474 1474 1474 1474 1475 1476 1477 1478 1480 1482 1483 1485 1487 1490 1492 1494 1497 1499 1502 1504 1507 1509 1511 1513 1516
1519 1516 1514 1511 1508 1505 1502 1498 1495 1491 1488 1486 1483 1481 1478 1476 1475 1474 1473 1473 1473 1473 1474 1474 1475 1476 1478 1479 1481 1483 1484 1486 1488 1490 1493 1496 1498 1500 1503 1505 1508 1510 1513
1518 1516 1513 1511 1508 1505 1502 1499 1495 1492 1489 1486 1484 1481 1479 1477 1475 1474 1473 1472 1473 1473 1473 1474 1474 1475 1476 1477 1478 1480 1482 1484 1485 1487 1489 1492 1494 1497 1499 1502 1505 1507 1510
1518 1516 1513 1511 1508 1506 1503 1500 1496 1494 1491 1488 1485 1483 1480 1478 1476 1474 1473 1472 1472 1472 1473 1473 1473 1474 1475 1476 1477 1478 1480 1481 1483 1485 1487 1488 1491 1493 1496 1498 1501 1504 1506
1517 1515 1513 1511 1508 1506 1503 1500 1498 1495 1492 1489 1487 1484 1482 1480 1477 1476 1474 1474 1473 1473 1473 1472 1473 1473 1474 1475 1476 1477 1478 1479 1481 1483 1484 1486 1488 1491 1493 1496 1498 1501 1504
1517 1515 1513 1511 1509 1506 1504 1502 1499 1496 1494 1491 1488 1486 1483 1481 1479 1477 1476 1475 1474 1473 1473 1473 1473 1473 1473 1474 1475 1476 1477 1478 1479 1480 1481 1483 1485 1488 1490 1493 1496 1499 1502
1516 1514 1513 1511 1509 1507 1505 1502 1500 1497 1495 1493 1490 1487 1484 1482 1480 1479 1478 1477 1476 1475 1474 1474 1473 1473 1474 1474 1475 1476 1477 1477 1478 1479 1481 1482 1484 1487 1489 1492 1495 1498 1500
1515 1513 1512 1510 1508 1507 1504 1502 1500 1498 1496 1494 1491 1489 1486 1484 1482 1481 1480 1478 1477 1476 1475 1474 1474 1474 1474 1474 1475 1476 1477 1478 1478 1479 1481 1482 1484 1486 1489 1491 1494 1497 1499
1513 1512 1510 1509 1508 1506 1504 1502 1501 1498 1497 1495 1493 1491 1488 1486 1484 1482 1481 1479 1478 1477 1476 1476 1475 1474 1474 1475 1475 1476 1477 1478 1479 1480 1481 1483 1484 1486 1488 1490 1492 1495 1498
1511 1510 1509 1508 1506 1505 1504 1502 1501 1499 1497 1495 1493 1491 1489 1487 1485 1483 1482 1481 1479 1478 1477 1476 1476 1475 1475 1476 1476 1476 1477 1479 1479 1480 1482 1483 1484 1486 1488 1490 1492 1494 1496
1509 1508 1507 1506 1505 1504 1502 1501 1500 1498 1497 1495 1493 1491 1490 1488 1486 1484 1483 1482 1481 1480 1479 1478 1477 1477 1477 1477 1477 1477 1478 1479 1480 1481 1482 1483 1485 1486 1488 1490 1492 1494 1496
1507 1506 1505 1504 1503 1502 1500 1499 1498 1496 1495 1494 1492 1491 1489 1488 1486 1484 1483 1482 1481 1480 1480 1479 1479 1478 1478 1478 1478 1478 1478 1479 1480 1481 1482 1483 1485 1486 1488 1489 1491 1494 1496
1504 1504 1503 1501 1500 1499 1498 1496 1495 1494 1492 1491 1490 1489 1487 1486 1485 1483 1482 1482 1481 1480 1480 1480 1479 1479 1478 1478 1478 1478 1479 1479 1480 1481 1482 1483 1484 1486 1487 1489 1491 1493 1495
1500 1500 1499 1498 1497 1495 1494 1493 1492 1491 1489 1488 1487 1486 1485 1484 1483 1482 1481 1480 1480 1479 1479 1479 1478 1478 1478 1478 1478 1478 1478 1479 1479 1480 1481 1482 1484 1485 1487 1488 1490 1492 1494
1496 1495 1494 1493 1492 1492 1491 1490 1488 1488 1487 1485 1484 1482 1482 1481 1480 1480 1479 1478 1478 1477 1477 1477 1477 1476 1476 1476 1476 1477 1477 1478 1478 1479 1480 1481 1482 1484 1485 1487 1489 1491 1492
1491 1490 1489 1488 1487 1487 1486 1485 1484 1483 1482 1481 1480 1479 1478 1477 1476 1476 1475 1475 1474 1474 1474 1473 1473 1473 1473 1473 1474 1474 1475 1475 1476 1477 1478 1479 1480 1482 1483 1485 1487 1488 1490
1486 1485 1484 1483 1482 1481 1480 1480 1479 1478 1477 1476 1475 1474 1473 1472 1472 1471 1470 1470 1470 1469 1469 1469 1469 1469 1469 1470 1470 1471 1471 1472 1473 1474 1475 1476 1477 1479 1481 1482 1484 1485 1487
1481 1480 1479 1478 1477 1476 1475 1474 1473 1472 1471 1471 1470 1469 1468 1467 1466 1466 1466 1464 1464 1464 1464 1464 1464 1464 1464 1465 1465 1466 1467 1468 1469 1470 1471 1472 1473 1475 1476 1478 1480 1482 1483
1477 1475 1474 1472 1471 1470 1469 1468 1468 1466 1465 1464 1463 1463 1461 1461 1460 1460 1459 1458 1458 1458 1458 1458 1458 1458 1458 1459 1460 1461 1462 1463 1464 1465 1466 1468 1469 1470 1472 1474 1475 1477 1479
1473 1471 1469 1468 1466 1464 1463 1462 1461 1460 1459 1458 1457 1456 1455 1453 1453 1452 1452 1451 1451 1451 1451 1451 1451 1451 1452 1452 1453 1454 1456 1457 1458 1459 1461 1462 1463 1465 1467 1468 1470 1472 1474
1470 1468 1465 1463 1461 1459 1458 1456 1455 1454 1452 1451 1450 1449 1448 1446 1445 1445 1444 1444 1444 1443 1443 1443 1443 1444 1444 1445 1446 1447 1448 1450 1452 1453 1454 1456 1457 1459 1461 1462 1464 1466 1468
1467 1465 1462 1460 1457 1455 1453 1451 1449 1447 1446 1444 1443 1441 1440 1439 1438 1437 1436 1436 1435 1435 1435 1435 1435 1436 1436 1437 1438 1439 1441 1442 1444 1446 1447 1449 1451 1453 1454 1456 1458 1460 1462
1465 1463 1460 1457 1454 1452 1449 1446 1444 1442 1439 1437 1435 1434 1432 1431 1430 1429 1428 1427 1426 1426 1426 1426 1426 1427 1428 1429 1430 1431 1433 1435 1436 1438 1440 1442 1444 1446 1447 1449 1451 1453 1455